www.pogodaiklimat.ru

Погода и климат >> Архив погоды >> Украина >> Сумы


АРХИВ ПОГОДЫ в Сумах

Время (UTC), дата Ветер
(напр.,м/с)
 
Видим.   Явления Облачность Т
(С)
Тd
(С)
f
(%)
Тe
(С)
Тes
(С)
Комфортность P
(гПа)
Po
(гПа)
Тmin
(С)
Tmax
(С)
R
(мм)
R24
(мм)
S
(см)
18 18.06 С 2 10 км ясно +24.4 +16.1 60 +28 +28 душно 1013.5 992.7 +30.7
21 18.06 СЗ 2 10 км ясно +20.8 +16.3 75 +25 +25 комфорт 1014.7 993.6
00 19.06 СЗ 2 10 км ясно +18.3 +14.7 80 +19 +19 тепло 1015.1 993.8
03 19.06 С 2 10 км ясно +18.5 +16.3 87 +20 +21 тепло 1015.2 993.9
06 19.06 СВ 2 10 км ясно +23.3 +15.9 63 +28 +37 душно 1015.2 994.3 +17.0
09 19.06 СВ 4 10 км 6/6 600 м
[Cu hum]
+27.3 +14.3 45 +30 +34 душно 1015.2 994.5
12 19.06 СВ 4 10 км 4/4 600 м
[Cu hum]
+28.0 +13.6 41 +30 +35 жарко 1015.1 994.5
15 19.06 СВ 2 10 км 3/3 600 м
[Cu hum]
+28.8 +12.0 35 +30 +32 жарко 1014.0 993.4
18 19.06 СВ 2 10 км ясно +25.6 +13.4 47 +28 +28 жарко 1014.5 993.7 +29.2
21 19.06 СВ 2 10 км ясно +21.7 +14.6 64 +25 +25 комфорт 1015.6 994.5
00 20.06 СВ 1 10 км ясно +18.5 +14.9 80 +20 +20 тепло 1016.4 995.1
03 20.06 С 2 10 км 4/0
[Ci fib]
+17.5 +15.1 86 +18 +19 тепло 1017.0 995.6
06 20.06 В 2 10 км 8/0
[Ci fib]
+24.1 +15.7 59 +27 +35 жарко 1016.4 995.5 +16.2
09 20.06 В 2 10 км 8/3 600 м
[Cu med, cong Ci fib]
+27.9 +12.3 38 +29 +39 жарко 1016.0 995.3
12 20.06 ЮВ 1 10 км 6/3 600 м
[Cu hum Ci fib]
+29.1 +12.2 35 +30 +40 жарко 1015.5 994.9
15 20.06 ЮВ 2 10 км 3/3 600 м
[Cu hum Ci fib]
+28.7 +13.0 38 +30 +33 жарко 1014.9 994.3
18 20.06 В 2 10 км 3/0
[Ci fib]
+24.5 +14.2 53 +27 +27 жарко 1014.8 993.9 +29.4
21 20.06 В 2 10 км 3/0
[Ci fib]
+20.8 +13.5 63 +24 +24 комфорт 1016.3 995.1
00 21.06 В 2 10 км 8/0
[Ac trans]
+19.0 +13.2 69 +21 +21 комфорт 1017.2 995.9
03 21.06 В 2 10 км 8/0
[Ac trans]
+19.9 +15.2 74 +23 +23 комфорт 1017.4 996.2
06 21.06 Ю 3 10 км 3/0
[Ac trans]
+24.5 +16.5 61 +28 +34 душно 1017.4 996.5 +18.4
09 21.06 ЮВ 3 10 км 6/4 600 м
[Cu hum Ci fib]
+29.2 +10.7 32 +30 +38 жарко 1017.1 996.5
12 21.06 ЮВ 1 10 км 8/5 600 м
[Cu hum Ci fib]
+31.2 +11.8 30 +32 +39 жарко 1016.6 996.1
15 21.06 ЮВ 3 10 км 4/4 600 м
[Cu hum]
+30.3 +12.3 33 +31 +33 жарко 1015.5 995.0
18 21.06 В 1 10 км 4/0
[Ci fib]
+25.8 +15.2 52 +29 +29 душно 1015.6 994.8 +31.6
21 21.06 В 1 10 км 8/0
[Ac trans]
+23.4 +15.4 61 +28 +28 душно 1016.6 995.6
00 22.06 В 3 10 км 3/0
[Ac trans]
+20.3 +15.0 72 +23 +23 комфорт 1016.6 995.4
03 22.06 ЮВ 2 10 км 4/0
[Ac trans]
+20.1 +15.2 73 +23 +24 комфорт 1017.1 995.9
06 22.06 ЮВ 2 10 км 8/0
[Ac trans]
+24.7 +17.0 62 +28 +33 душно 1017.1 996.2 +17.7
09 22.06 Ю 1 10 км 6/0
[Ac trans]
+30.6 +14.6 38 +33 +46 душно 1016.9 996.4
12 22.06 Ю 3 10 км 6/6 600 м
[Cu med, cong]
+32.4 +12.0 29 +33 +37 жарко 1016.5 996.1
15 22.06 ЮВ 1 10 км 3/3 600 м
[Cu med, cong]
+32.1 +11.7 29 +32 +35 жарко 1015.5 995.1
18 22.06 штиль 0 10 км 3/0
[Ci fib]
+28.2 +18.0 54 +33 +33 очень
душно
1015.6 995.0 +33.2
21 22.06 штиль 0 10 км 3/0
[Ac trans]
+22.6 +15.2 63 +26 +26 жарко 1016.3 995.3
00 23.06 штиль 0 10 км 3/0
[Ac trans]
+19.4 +13.8 70 +21 +21 комфорт 1016.7 995.4
03 23.06 В 1 10 км 8/0
[Ac trans]
+19.8 +16.7 82 +23 +24 комфорт 1016.8 995.6
06 23.06 Ю 3 10 км 6/0
[Ac trans Ci fib]
+27.7 +15.7 48 +31 +36 душно 1016.8 996.1 +19.0
09 23.06 Ю 2 10 км 8/0
[Ac trans Ci fib]
+29.8 +13.0 36 +31 +43 жарко 1016.8 996.2
12 23.06 С 1 10 км 10/0
[Ac trans Ci fib]
+27.9 +17.8 54 +32 +41 душно 1016.3 995.7
15 23.06 В 2 10 км 10/0
[Ac trans Ci fib]
+28.4 +17.9 53 +33 +35 очень
душно
1015.1 994.5
18 23.06 СВ 1 10 км 10/0
[Ac trans Ci fib]
+25.7 +16.5 57 +29 +29 душно 1015.8 995.0 +30.9
21 23.06 Ю 3 10 км 10/0
[Ac trans Ci fib]
+23.2 +15.6 62 +27 +27 душно 1016.9 995.9
00 24.06 С 1 10 км 10/0
[Ci fib]
+21.8 +16.4 71 +26 +26 душно 1016.6 995.5
03 24.06 В 1 10 км 9/3 1000 м
[Cb calv Ac trans]
+21.3 +17.7 80 +25 +26 комфорт 1017.0 995.9
06 24.06 С 2 10 км {ливн. осадки} 8/3 600 м
[Cb calv Ac trans]
+24.7 +17.7 65 +29 +32 душно 1017.4 996.5 +19.9 0.0
09 24.06 С 5 10 км 8/0
[Ac trans]
+28.1 +16.2 48 +31 +36 душно 1017.3 996.6
12 24.06 С 5 10 км 6/0
[Ac trans Ci fib]
+30.6 +15.8 41 +33 +39 душно 1017.5 997.0
15 24.06 С 5 10 км 4/3 600 м
[Cu hum Ac trans]
+29.8 +17.6 48 +34 +35 очень
душно
1017.5 997.0
18 24.06 СВ 5 10 км 3/0
[Ci fib]
+26.7 +16.7 54 +30 +30 душно 1019.2 998.4 +31.5
21 24.06 СВ 5 10 км ясно +23.2 +16.5 66 +28 +28 душно 1021.0 999.9
00 25.06 СВ 3 10 км ясно +20.1 +15.2 73 +23 +23 комфорт 1022.1 1000.8
03 25.06 СВ 3 10 км ясно +18.7 +14.4 76 +20 +21 тепло 1022.9 1001.5
06 25.06 СВ 4 10 км 3/0
[Ci fib]
+22.3 +14.3 61 +26 +31 жарко 1023.8 1002.6 +18.1
09 25.06 СВ 5 20 км 3/0
[Ci fib]
+26.3 +9.4 34 +27 +35 жарко 1023.8 1002.8
12 25.06 СВ 5 20 км 4/3 600 м
[Cu hum Ci fib]
+27.1 +8.6 31 +27 +32 жарко 1023.9 1003.0
15 25.06 СВ 4 20 км 6/3 1000 м
[Cu hum Ci fib]
+26.7 +7.4 29 +26 +28 жарко 1023.8 1002.9

 

Местоположение метеостанции Сумы (Сумская область, Украина): широта 50.85 долгота 34.67 высота над уровнем моря 181 м.

В архиве по умолчанию представлена погода в Сумах за последнюю неделю. Архивные данные за месяц целиком и за предыдущие месяцы, начиная с января 2011 года, Вы можете получить, выбрав интересующий диапазон дат из раскрывающегося списка и нажав кнопку "Ввод!".


*Определитесь, кто Вы:
робот инопланетянин человек

Внимание! Время в таблицах - всемирное. Для получения местного времени необходимо прибавить поправку, которая равна 2 ч.

Смотрите также архив погоды в соседних городах и на ближайших метеорологических станциях:

Погода в Лебедине (Сумская область, Украина) (33 км)
Погода в Гадяче (Полтавская область, Украина) (72 км)
Погода в Готне (Белгородская область, Россия) (77 км)
Погода в Рыльск (Курская область, Россия) (80 км)
Погода в Ромнах (Сумская область, Украина) (86 км)
Погода в Боходухове (Харьковская область, Украина) (94 км)
Погода в Глухове (Сумская область, Украина) (106 км)
Погода в Золочеве (Львовская область, Украина) (109 км)
Погода в Конотопе (Сумская область, Украина) (111 км)
Погода в Курчатове (Курская область, Россия) (113 км)

Пояснения к столбцам:

Ветер - указаны скорость ветра в м/с - средняя за 10 мин, порывы в срок и между сроками (в фигурных скобках) и направление, откуда дует ветер: С - северный, СВ - северо-восточный, В - восточный, ЮВ - юго-восточный, Ю - южный, ЮЗ - юго-западный, З - западный, СЗ - северо-западный.
Видимость - горизонтальная дальность видимости в метрах или километрах. При видимости от 1 до 10 км при отсутствии осадков обычно наблюдается дымка, при ухудшении видимости до 1 км и менее - туман. В сухую погоду видимость может ухудшаться дымом, пылью или мглою.
Явления - указаны атмосферные явления, наблюдавшиеся в срок или в последний час перед сроком; фигурными скобками обозначены явления, наблюдавшиеся между сроками (за 1-3 часа до срока); квадратными скобками обозначены град или гололедные отложения с указанием их диаметра в мм.
Облачность - указаны через наклонную черту общая и нижняя облачность в баллах и высота нижней границы облаков в метрах; квадратными скобками обозначены формы облаков: Ci - перистые, Cs - перисто-слоистые, Cc - перисто-кучевые, Ac - высококучевые, As - высокослоистые, Sc - слоисто-кучевые, Ns - слоисто-дождевые, Cu - кучевые, Cb - кучево-дождевые. Подробнее классификацию облаков см. в Атласе облаков (PDF).
T - Температура воздуха - температура, измеренная на высоте 2 м над землей.
Td - Температура точки росы - температура, при понижении до которой содержащийся в воздухе водяной пар достигнет насыщения.
f - Относительная влажность воздуха - влажноcть воздуха, измеренная на высоте 2 м над землей.
Te - Эффективная температура - температура, которую ощущает одетый по сезону человек в тени. Характеристика душности погоды. При расчете учитывается влияние влажности воздуха и скорости ветра на теплоощущения человека.
Tes - Эффективная температура на солнце - температура, которую ощущает человек, с поправкой на солнечный нагрев. Характеристика знойности погоды. Зависит от высоты солнца над горизонтом, облачности и скорости ветра. Ночью, в пасмурную погоду, а также при ветре 12 м/с и более поправка равна нулю.
P - Атмосферное давление - приведенное к уровню моря атмосферное давление.
Po - Атмосферное давление - измеренное на уровне метеостанции атмосферное давление.
Tmin - Минимальная температура - минимум температуры воздуха на высоте 2 м над землей.
Tmax - Максимальная температура - максимум температуры воздуха на высоте 2 м над землей.
R - Количество осадков - Количество выпавших осадков за период времени, мм. При наведении курсора мыши на число - период времени, за который выпало указанное количество осадков.
R24 - Количество осадков - Количество выпавших осадков за 24 часа, мм.
S - Снежный покров - Высота снежного покрова, см. При наведении курсора мыши на число - состояние снежного покрова и степень покрытия местности в баллах.